Location: Joplin, MO
(37.0842°N, 94.5133°W)
Time: 17:30:38
(UTC+02:00)

Transit 2A - Pass Details

Date: 05 April 2023
Orbit: 591 x 964 km, 66.7° (Epoch: 03 June)

Event Time Altitude Azimuth Distance (km) Brightness Sun altitude
Exits shadow 12:18:53 13° 304° (NW) 2,260 8.1 -19.8°
Maximum altitude 12:20:10 14° 319° (NW) 2,230 8.2 -19.6°
Drops below altitude 10° 12:23:18 10° 351° (N) 2,589 8.9 -19.0°
Sets 12:27:17 0° 15° (NNE) 3,594 10.0 -18.3°
